Regional Weather Roundup
Issued by NWS Charleston, SC

Current Version | Previous Version | Graphics & Text | Print | Product List | Glossary On
Versions: 1 2 3 4 5 6 7 8 9 10 11 12 13 14 15 16 17 18 19 20 21 22 23 24 25 26 27 28 29 30 31 32 33 34 35 36 37 38 39 40 41 42 43 44 45 46 47 48 49 50
000
ASUS42 KCHS 040027
RWRCHS
REGIONAL WEATHER ROUNDUP
NATIONAL WEATHER SERVICE CHARLESTON SC
800 PM EDT MON AUG 03 2015

NOTE: "FAIR" INDICATES FEW OR NO CLOUDS BELOW 12,000 FEET WITH NO
SIGNIFICANT WEATHER AND/OR OBSTRUCTIONS TO VISIBILITY.

NOT ALL STATIONS ARE QUALITY CONTROLLED BY THE NATIONAL
WEATHER SERVICE. USE DATA WITH CAUTION...ESPECIALLY
DEWPOINT OBSERVATIONS.

SCZ027-030-031-034>040-042>050-040100-
...SOUTHEAST SOUTH CAROLINA...

CITY           SKY/WX    TMP DP  RH WIND       PRES   REMARKS
N CHARLESTON   MOCLDY    78  74  87 E7        29.90S
6HR MIN TEMP:  78; 6HR MAX TEMP:  85; 6HR PCP: TRACE;

WATERFRONT PRK   N/A     83  77  81 S6        29.87F HX  92
MOUNT PLEASANT LGT RAIN  75  73  94 CALM      29.91F
JOHNS ISLAND   MOCLDY    82  75  78 SE6       29.90S
PINOPOLIS      NOT AVBL
MONCKS CORNER  FAIR      82  72  69 CALM      29.90F
SUMMERVILLE    FAIR      81  73  78 SE6       29.91S
BEAUFORT MCAS  MOCLDY    82  75  79 SE6       29.88S
6HR MIN TEMP:  80; 6HR MAX TEMP:  86; 6HR PCP:  0.02;

BEAUFORT ARPT  NOT AVBL
HILTON HEAD IS MOCLDY    79  79 100 S5        29.89S
WALTERBORO     PTCLDY    81  77  89 NE5       29.90S
ALLENDALE      NOT AVBL

...SOUTHERN MIDLANDS AND PEE DEE...

CITY           SKY/WX    TMP DP  RH WIND       PRES   REMARKS
GEORGETOWN     NOT AVBL
KINGSTREE      NOT AVBL
ORANGEBURG     CLEAR     79  72  79 SE6       29.90F
6HR MIN TEMP:  78; 6HR MAX TEMP:  84; 6HR PCP:  0.01;

BARNWELL       FAIR      82  75  78 SE5       29.90F
AIKEN          NOT AVBL
MANNING        NOT AVBL
COLUMBIA       PTCLDY    85  70  60 S8        29.90R
6HR MIN TEMP:  85; 6HR MAX TEMP:  94;

SUMTER         CLEAR     82  71  69 S8        29.90R
6HR MIN TEMP:  82; 6HR MAX TEMP:  90;

FLORENCE       PTCLDY    82  73  74 S6        29.92S
6HR MIN TEMP:  82; 6HR MAX TEMP:  89;

MYRTLE BEACH   MOCLDY    82  75  78 S14       29.96R
N MYRTLE BEACH CLOUDY    82  77  84 S10       29.94R HX  90
6HR MIN TEMP:  75; 6HR MAX TEMP:  82; 6HR PCP:  0.09;


$$

GAZ063-065-086>088-099>101-113>116-118-119-134>141-150-040100-
...SOUTHEAST GEORGIA...

CITY           SKY/WX    TMP DP  RH WIND       PRES   REMARKS
SAVANNAH ARPT  MOCLDY    81  73  76 E10       29.87S
6HR MIN TEMP:  81; 6HR MAX TEMP:  85;

HUNTER AAF     PTCLDY    79  78  97 E6        29.85S
6HR MIN TEMP:  79; 6HR MAX TEMP:  84; 6HR PCP: TRACE;

FORT STEWART   PTCLDY    82  75  78 E5        29.85R
STATESBORO     CLOUDY    79  79 100 NE5       29.89R
SYLVANIA       MOCLDY    80  78  94 E5        29.89S
CLAXTON        NOT AVBL

...CSRA...CENTRAL AND FAR SOUTHEAST GEORGIA...

CITY           SKY/WX    TMP DP  RH WIND       PRES   REMARKS
THOMSON        CLEAR     87  76  69 E3        29.93S HX  97
AUGUSTA-BUSH   CLEAR     83  73  72 SE7       29.88S
6HR MIN TEMP:  83; 6HR MAX TEMP:  93;

AUGUSTA-DANIEL CLEAR     84  72  67 SE8       29.90R
SWAINSBORO     FAIR      82  75  78 E6        29.90S
VIDALIA        CLEAR     81  75  83 CALM      29.88S
EASTMAN        FAIR      83  74  76 CALM      29.91R
HAZLEHURST     FAIR      82  81  98 CALM      29.87S HX  95
ALMA           PTCLDY    80  77  90 N3        29.86F
6HR MIN TEMP:  77; 6HR MAX TEMP:  90; 6HR PCP:  0.33;

WAYCROSS       MOCLDY    83  81  94 NW6       29.86S HX  95
JESUP          FAIR      82  79  89 NE5       29.86S HX  93
BAXLEY         FAIR      82  77  83 NE5       29.87S HX  91
BRUNSWICK      CLEAR     81  77  89 CALM      29.86R
SAINT SIMONS   CLOUDY    81  77  88 S6        29.84S
6HR MIN TEMP:  81; 6HR MAX TEMP:  85;


$$

SCZ027-028-034-036>038-045-046-048>050-GAZ119-141-040100-
...LAKE AND SUPPLEMENTAL COASTAL OBSERVATIONS...

STATION/POSITION TIME  TEMP    WIND        PRES    WAVE   SWELL
                       AIR SEA DIR/SP/G            HT/PER HT/PER/DIR
                 (UTC) (F)     (DEG/KT/KT) (MB)    (FT/S) (FT/S/D)
UPR LAKE MARION  NOT AVBL
WINYAH BAY       2345   81     110/  8     1013.0S
LAKE MURRAY      2300   88     130/  9/ 12 1011.5S
ACE BASIN NERRS  NOT AVBL
FORT PULASKI     0000   80 85   70/  5/  6 1012.0F
SAPELO ISLAND    0000   81      60/  1     1011.0R

$$

ANZ835-935-AMZ111-154-330-350-352-354-370-450-454-472-040100-
...C-MAN AND BUOY OBSERVATIONS...

STATION/POSITION TIME  TEMP    WIND        PRES    WAVE   SWELL
                       AIR SEA DIR/SP/G            HT/PER HT/PER/DIR
                 (UTC) (F)     (DEG/KT/KT) (MB)    (FT/S) (FT/S/D)
BUOY 41004       2350   81 83  150/ 16/ 21 1012.1F   5/ 6   2/11
BUOY 41008       2350   80 83  190/ 14/ 16 1010.9F   5/ 6   3/150/ 6
FOLLY BEACH CMAN 0000   83     150/ 10/ 11 1012.8F
CAPERS NEARSHORE 2308   82     140/ 10/ 14 1012.9F
FRIPP NEARSHORE  2300   82     150/ 14/ 16 1011.7F


STATION/POSITION TIME  TEMP    WIND        PRES    WAVE   SWELL
                       AIR SEA DIR/SP/G            HT/PER HT/PER/DIR
                 (UTC) (F)     (DEG/KT/KT) (MB)    (FT/S) (FT/S/D)
5E ST. MARYS GA  2321      82                N/A     5/ 6   2/110/11
FRYING PAN BUOY  2350   83 82  180/ 10/ 12 1014.9R   5/ 7   5/180/ 7
BUOY 41025       2350   79 84  180/ 17/ 21 1014.7R   4/ 6   2/190/ 7
CAPE LOOKOUT NC  0000   78     180/ 14/ 17 1014.2R
BUOY 41002       2350   83 81  200/ 14/ 16 1017.6R   5/ 6   3/220/ 7
BUOY 41010       2320   84 84  190/ 16/ 17 1015.1R
ST AUGUSTINE FL  0000   76 79  210/  7/  9 1013.0R


$$



USA.gov is the U.S. government's official web portal to all federal, state and local government web resources and services.